EUTELSAT 3B

Last updated on Mon Oct 14 2024 00:02:39 GMT+0000 (Coordinated Universal Time)

1 39773U 14030A 24287.42063222 .00000019 00000+0 00000+0 0 9999 2 39773 0.0659 18.1798 0005141 178.0895 340.7479 1.00272089 37939
UTC large
Height (km)
Speed (km/s)
/
Latitude / Longitude
Inclination (degrees)
Orbital Period (minutes)
Azimuth
Elevation
Range (km)
Doppler Factor

Next 0 passes for location: London (51.5072 / 0.1276)

Sorry there are no passes over London.